This is the latest recevied weather packets stored in our database for station/object RN1M-13. If no packets are shown the sender has not sent any weather packets the latest 1 day(s).
| Time | Temp. | Humidity | Pressure | Rain* | Wind** | Luminosity | Snow |
|---|---|---|---|---|---|---|---|
| 1777848355 | 11.67° C | 100% | 1006.1 hPa | - | - | - | - |
| 1777847455 | 12.22° C | 100% | 1006.1 hPa | - | - | - | - |
| 1777846555 | 11.67° C | 100% | 1005.9 hPa | - | - | - | - |
| 1777845655 | 12.22° C | 100% | 1005.8 hPa | - | - | - | - |
| 1777844755 | 11.67° C | 100% | 1005.8 hPa | - | - | - | - |
| 1777843855 | 11.67° C | 100% | 1005.7 hPa | - | - | - | - |
| 1777842955 | 11.67° C | 100% | 1005.6 hPa | - | - | - | - |
| 1777842054 | 11.67° C | 100% | 1005.6 hPa | - | - | - | - |
| 1777841154 | 11.67° C | 100% | 1005.6 hPa | - | - | - | - |
| 1777840254 | 11.67° C | 100% | 1005.9 hPa | - | - | - | - |
| 1777839354 | 11.11° C | 100% | 1005.8 hPa | - | - | - | - |
| 1777838456 | 11.11° C | 100% | 1005.9 hPa | - | - | - | - |
| 1777837564 | 11.11° C | 100% | 1005.9 hPa | - | - | - | - |
| 1777836664 | 10.56° C | 100% | 1006.2 hPa | - | - | - | - |
| 1777835764 | 11.11° C | 100% | 1006.3 hPa | - | - | - | - |
| 1777834864 | 11.11° C | 100% | 1006.5 hPa | - | - | - | - |
| 1777833964 | 11.67° C | 100% | 1006.4 hPa | - | - | - | - |
| 1777833064 | 12.22° C | 100% | 1006.5 hPa | - | - | - | - |
| 1777832204 | 12.22° C | 100% | 1006.6 hPa | - | - | - | - |
| 1777832163 | 12.22° C | 100% | 1006.6 hPa | - | - | - | - |
| 1777831263 | 12.22° C | 100% | 1006.5 hPa | - | - | - | - |
| 1777830363 | 12.78° C | 100% | 1006.3 hPa | - | - | - | - |
| 1777829463 | 12.78° C | 100% | 1006.2 hPa | - | - | - | - |
* Rain since midnight (hover to see other rain measurements)
** Current wind speed in m/s (hover to see current wind gust speed)